Torna al catalogo

STARLINK-1331

AttivoComunicazioniVLEO
NORAD 45578·PAYLOAD·🇺🇸 United States

Lanciato Apr 22, 2020 da Cape Canaveral Space Force Station

Loading…

Prossimi Passaggi (prossime 24 ore)

TLE

AggiornatoSource: CelesTrak SupGP

Epoca: Sep 14, 2026, 21:14 UTC

1 45578C 20025AZ  26257.88520833  .00114440  00000+0  57461-3 0  2573
2 45578  53.0402 216.4287 0004964  63.6677 164.6195 15.80943722    17

Traccia STARLINK-1331 in tempo reale con AllMySat

Download on the App Store